Fernando Pessoa — CSKQ — position and weather

sailwx.info

Track history (hours):
 
Tides and Currents Weather Stations Pressure Air Temp Water Temp Dewpoint Dewpoint Depression Visibility Wind Speed Wind Dir Waves Ship Positions

Fernando Pessoa

Last reported at 2014-Oct-24 15:29 UTC. Time now 2014-Oct-25 12:03 UTC.
Position N 38°39' W 009°05'.

Length 49 m.

MMSI: 263701470.

Date/timePositionNaut miles runAvg speedWind from/ knotsBaromVisibWave heightAir tempDewpointWater temp
2014-Oct-24 15:29N 38°39' W 009°05'0 0.0
2014-Oct-24 09:17N 38°39' W 009°05'1 1.2
2014-Oct-24 08:34N 38°39' W 009°06'3 3.3
2014-Oct-24 07:33N 38°42' W 009°08'1 1.2
2014-Oct-24 06:34N 38°41' W 009°08'3 3.1
2014-Oct-24 05:33N 38°39' W 009°05'0 0.0
2014-Oct-23 19:33N 38°39' W 009°05'4 3.8
2014-Oct-23 18:34N 38°42' W 009°08'0 0.2
2014-Oct-23 17:34N 38°42' W 009°08'3 2.7
2014-Oct-23 16:33N 38°40' W 009°07'2 1.7
2014-Oct-23 15:33N 38°39' W 009°05'1 1.1
2014-Oct-23 14:33N 38°40' W 009°06'1 1.2
2014-Oct-23 13:33N 38°39' W 009°05'0 0.0
2014-Oct-23 12:33N 38°39' W 009°05'0 0.0
2014-Oct-23 11:33N 38°39' W 009°05'0 0.0
2014-Oct-23 10:33N 38°39' W 009°05'0 0.1
2014-Oct-23 09:33N 38°39' W 009°05'1 1.1
2014-Oct-23 08:33N 38°40' W 009°06'1 0.7
2014-Oct-23 07:34N 38°40' W 009°07'2 1.9
2014-Oct-23 06:33N 38°39' W 009°05'0 0.0
2014-Oct-23 05:33N 38°39' W 009°05'0 0.0
2014-Oct-23 04:33N 38°39' W 009°05'0 0.0
2014-Oct-23 03:33N 38°39' W 009°05'0 0.0
2014-Oct-23 02:33N 38°39' W 009°05'0 0.0
2014-Oct-23 01:33N 38°39' W 009°05'0 0.0
2014-Oct-23 00:33N 38°39' W 009°05'0 0.0
2014-Oct-22 23:34N 38°39' W 009°05'4 3.9
2014-Oct-22 22:34N 38°42' W 009°08'1 1.4
2014-Oct-22 21:33N 38°41' W 009°08'0 0.2
2014-Oct-22 20:34N 38°41' W 009°08'3 2.9
2014-Oct-22 19:33N 38°39' W 009°05'1 0.5
2014-Oct-22 18:34N 38°39' W 009°05'0 0.5
2014-Oct-22 17:33N 38°39' W 009°05'2 2.1
2014-Oct-22 16:33N 38°40' W 009°07'2 2.2
2014-Oct-22 15:33N 38°39' W 009°05'0 0.0
2014-Oct-22 08:33N 38°39' W 009°05'0 0.2
2014-Oct-22 07:34N 38°39' W 009°05'0 0.2
2014-Oct-22 06:33N 38°39' W 009°05'0 0.0
2014-Oct-22 05:33N 38°39' W 009°05'4 0.4
2014-Oct-21 19:33N 38°42' W 009°08'0 0.4
2014-Oct-21 18:33N 38°42' W 009°08'1 1.3
2014-Oct-21 17:33N 38°41' W 009°08'3 3.2
2014-Oct-21 16:33N 38°39' W 009°05'0 0.0
2014-Oct-21 15:33N 38°39' W 009°05'0 0.0
2014-Oct-21 14:33N 38°39' W 009°05'0 0.0
2014-Oct-21 13:33N 38°39' W 009°05'3 2.9
2014-Oct-21 12:33N 38°41' W 009°08'0 0.2
2014-Oct-21 11:33N 38°41' W 009°08'0 0.1
2014-Oct-21 10:32N 38°41' W 009°08'3 2.9
2014-Oct-21 09:33N 38°39' W 009°05'2 2.0
2014-Oct-21 08:33N 38°40' W 009°07'3 2.6
2014-Oct-21 07:33N 38°42' W 009°08'1 1.4
2014-Oct-21 06:33N 38°41' W 009°08'3 2.9
2014-Oct-21 05:33N 38°39' W 009°05'4 0.3
2014-Oct-20 18:33N 38°42' W 009°08'0 0.2
2014-Oct-20 17:33N 38°42' W 009°08'3 2.5
2014-Oct-20 16:33N 38°40' W 009°07'2 1.8
2014-Oct-20 15:33N 38°39' W 009°05'1 0.8
2014-Oct-20 14:33N 38°40' W 009°06'1 1.1
2014-Oct-20 13:33N 38°39' W 009°05'0 0.0
2014-Oct-20 12:32N 38°39' W 009°05'0 0.0
2014-Oct-20 11:33N 38°39' W 009°05'0 0.0
2014-Oct-20 10:33N 38°39' W 009°05'0 0.1
2014-Oct-20 09:33N 38°39' W 009°05'1 1.2
2014-Oct-20 08:33N 38°40' W 009°06'0 0.4
2014-Oct-20 07:33N 38°40' W 009°07'2 1.7
2014-Oct-20 06:33N 38°39' W 009°05'0 0.0
2014-Oct-20 05:33N 38°39' W 009°05'0 0.0
2014-Oct-20 04:33N 38°39' W 009°05'0 0.0
2014-Oct-20 03:34N 38°39' W 009°05'0 0.0
2014-Oct-20 02:33N 38°39' W 009°05'0 0.0
2014-Oct-20 01:33N 38°39' W 009°05'0 0.0
2014-Oct-20 00:32N 38°39' W 009°05'0 0.0
2014-Oct-19 23:32N 38°39' W 009°05'0 0.0
2014-Oct-19 22:33N 38°39' W 009°05'0 0.0
2014-Oct-19 21:33N 38°39' W 009°05'3 3.0
2014-Oct-19 20:33N 38°41' W 009°08'3 3.1
2014-Oct-19 19:33N 38°39' W 009°05'1 1.3
2014-Oct-19 18:33N 38°40' W 009°06'0 0.3
2014-Oct-19 17:33N 38°39' W 009°06'0 0.2
2014-Oct-19 16:33N 38°39' W 009°06'1 0.6
2014-Oct-19 15:34N 38°40' W 009°06'1 1.1
2014-Oct-19 14:18N 38°39' W 009°05'2 2.1
2014-Oct-19 13:33N 38°40' W 009°06'1 0.9
2014-Oct-19 12:32N 38°39' W 009°06'1 0.7
2014-Oct-19 11:33N 38°39' W 009°05'0 0.0
2014-Oct-19 10:32N 38°39' W 009°05'0 0.0
2014-Oct-19 09:05N 38°39' W 009°05'0 0.0
2014-Oct-19 08:31N 38°39' W 009°05'3 3.2
2014-Oct-19 07:33N 38°42' W 009°06'3 3.1
2014-Oct-19 06:33N 38°39' W 009°05'2 1.9
2014-Oct-19 05:29N 38°40' W 009°07'2 0.1
2014-Oct-17 20:32N 38°39' W 009°05'0 0.0
2014-Oct-17 19:32N 38°39' W 009°05'3 3.4
2014-Oct-17 18:33N 38°42' W 009°08'2 1.6
2014-Oct-17 17:33N 38°40' W 009°07'2 2.1
2014-Oct-17 16:33N 38°39' W 009°05'2 1.6
2014-Oct-17 15:27N 38°40' W 009°07'2 1.9
2014-Oct-17 14:32N 38°39' W 009°05'0 0.0
2014-Oct-17 10:22N 38°39' W 009°05'1 1.6
2014-Oct-17 09:33N 38°40' W 009°06'1 0.5
2014-Oct-17 08:31N 38°40' W 009°07'2 2.4
2014-Oct-17 07:33N 38°42' W 009°08'0 0.3
2014-Oct-17 06:33N 38°42' W 009°08'4 0.4
2014-Oct-16 20:16N 38°39' W 009°05'3 4.1
2014-Oct-16 19:33N 38°41' W 009°08'1 1.3
2014-Oct-16 18:31N 38°40' W 009°07'3 2.7
2014-Oct-16 17:32N 38°42' W 009°08'0 0.3
2014-Oct-16 16:33N 38°42' W 009°08'2 1.6
2014-Oct-16 15:33N 38°41' W 009°08'3 2.5
2014-Oct-16 14:25N 38°39' W 009°05'1 1.6
2014-Oct-16 13:33N 38°40' W 009°06'0 0.1
2014-Oct-16 12:33N 38°40' W 009°06'2 0.7
2014-Oct-16 09:33N 38°41' W 009°08'3 3.2
2014-Oct-16 08:32N 38°39' W 009°05'2 1.7
2014-Oct-16 07:32N 38°40' W 009°07'2 2.5
2014-Oct-16 06:33N 38°42' W 009°08'0 0.4
2014-Oct-16 05:33N 38°42' W 009°08'0 0.0
2014-Oct-16 04:33N 38°42' W 009°08'4 1.3
2014-Oct-16 01:24N 38°39' W 009°05'0 0.6
2014-Oct-16 00:34N 38°39' W 009°05'0 0.0
2014-Oct-15 23:33N 38°39' W 009°05'0 0.1
2014-Oct-15 22:34N 38°39' W 009°05'1 1.3
2014-Oct-15 21:33N 38°40' W 009°07'0 0.0
2014-Oct-15 20:33N 38°40' W 009°07'2 1.6
2014-Oct-15 19:33N 38°39' W 009°05'0 0.0
2014-Oct-15 18:33N 38°39' W 009°05'1 1.4
2014-Oct-15 17:34N 38°40' W 009°06'3 2.8
2014-Oct-15 16:34N 38°42' W 009°08'4 3.9
2014-Oct-15 15:33N 38°39' W 009°05'0 0.0
2014-Oct-15 13:09N 38°39' W 009°05'0 0.0
2014-Oct-15 12:33N 38°39' W 009°05'0 0.0
2014-Oct-15 11:33N 38°39' W 009°05'0 0.0
2014-Oct-15 10:33N 38°39' W 009°05'0 0.0
2014-Oct-15 09:33N 38°39' W 009°05'1 1.2
2014-Oct-15 08:34N 38°40' W 009°06'2 2.4
2014-Oct-15 07:33N 38°42' W 009°08'1 0.5
2014-Oct-15 06:33N 38°42' W 009°08'  
Track history (hours):
 
Tides and Currents Weather Stations Pressure Air Temp Water Temp Dewpoint Dewpoint Depression Visibility Wind Speed Wind Dir Waves Ship Positions

Fernando Pessoa

Last reported at 2014-Oct-24 15:29 UTC. Time now 2014-Oct-25 12:03 UTC.
Position N 38°39' W 009°05'.

Length 49 m.

MMSI: 263701470.

Date/timePositionNaut miles runAvg speedWind from/ knotsBaromVisibWave heightAir tempDewpointWater temp
2014-Oct-24 15:29N 38°39' W 009°05'0 0.0
2014-Oct-24 09:17N 38°39' W 009°05'1 1.2
2014-Oct-24 08:34N 38°39' W 009°06'3 3.3
2014-Oct-24 07:33N 38°42' W 009°08'1 1.2
2014-Oct-24 06:34N 38°41' W 009°08'3 3.1
2014-Oct-24 05:33N 38°39' W 009°05'0 0.0
2014-Oct-23 19:33N 38°39' W 009°05'4 3.8
2014-Oct-23 18:34N 38°42' W 009°08'0 0.2
2014-Oct-23 17:34N 38°42' W 009°08'3 2.7
2014-Oct-23 16:33N 38°40' W 009°07'2 1.7
2014-Oct-23 15:33N 38°39' W 009°05'1 1.1
2014-Oct-23 14:33N 38°40' W 009°06'1 1.2
2014-Oct-23 13:33N 38°39' W 009°05'0 0.0
2014-Oct-23 12:33N 38°39' W 009°05'0 0.0
2014-Oct-23 11:33N 38°39' W 009°05'0 0.0
2014-Oct-23 10:33N 38°39' W 009°05'0 0.1
2014-Oct-23 09:33N 38°39' W 009°05'1 1.1
2014-Oct-23 08:33N 38°40' W 009°06'1 0.7
2014-Oct-23 07:34N 38°40' W 009°07'2 1.9
2014-Oct-23 06:33N 38°39' W 009°05'0 0.0
2014-Oct-23 05:33N 38°39' W 009°05'0 0.0
2014-Oct-23 04:33N 38°39' W 009°05'0 0.0
2014-Oct-23 03:33N 38°39' W 009°05'0 0.0
2014-Oct-23 02:33N 38°39' W 009°05'0 0.0
2014-Oct-23 01:33N 38°39' W 009°05'0 0.0
2014-Oct-23 00:33N 38°39' W 009°05'0 0.0
2014-Oct-22 23:34N 38°39' W 009°05'4 3.9
2014-Oct-22 22:34N 38°42' W 009°08'1 1.4
2014-Oct-22 21:33N 38°41' W 009°08'0 0.2
2014-Oct-22 20:34N 38°41' W 009°08'3 2.9
2014-Oct-22 19:33N 38°39' W 009°05'1 0.5
2014-Oct-22 18:34N 38°39' W 009°05'0 0.5
2014-Oct-22 17:33N 38°39' W 009°05'2 2.1
2014-Oct-22 16:33N 38°40' W 009°07'2 2.2
2014-Oct-22 15:33N 38°39' W 009°05'0 0.0
2014-Oct-22 08:33N 38°39' W 009°05'0 0.2
2014-Oct-22 07:34N 38°39' W 009°05'0 0.2
2014-Oct-22 06:33N 38°39' W 009°05'0 0.0
2014-Oct-22 05:33N 38°39' W 009°05'4 0.4
2014-Oct-21 19:33N 38°42' W 009°08'0 0.4
2014-Oct-21 18:33N 38°42' W 009°08'1 1.3
2014-Oct-21 17:33N 38°41' W 009°08'3 3.2
2014-Oct-21 16:33N 38°39' W 009°05'0 0.0
2014-Oct-21 15:33N 38°39' W 009°05'0 0.0
2014-Oct-21 14:33N 38°39' W 009°05'0 0.0
2014-Oct-21 13:33N 38°39' W 009°05'3 2.9
2014-Oct-21 12:33N 38°41' W 009°08'0 0.2
2014-Oct-21 11:33N 38°41' W 009°08'0 0.1
2014-Oct-21 10:32N 38°41' W 009°08'3 2.9
2014-Oct-21 09:33N 38°39' W 009°05'2 2.0
2014-Oct-21 08:33N 38°40' W 009°07'3 2.6
2014-Oct-21 07:33N 38°42' W 009°08'1 1.4
2014-Oct-21 06:33N 38°41' W 009°08'3 2.9
2014-Oct-21 05:33N 38°39' W 009°05'4 0.3
2014-Oct-20 18:33N 38°42' W 009°08'0 0.2
2014-Oct-20 17:33N 38°42' W 009°08'3 2.5
2014-Oct-20 16:33N 38°40' W 009°07'2 1.8
2014-Oct-20 15:33N 38°39' W 009°05'1 0.8
2014-Oct-20 14:33N 38°40' W 009°06'1 1.1
2014-Oct-20 13:33N 38°39' W 009°05'0 0.0
2014-Oct-20 12:32N 38°39' W 009°05'0 0.0
2014-Oct-20 11:33N 38°39' W 009°05'0 0.0
2014-Oct-20 10:33N 38°39' W 009°05'0 0.1
2014-Oct-20 09:33N 38°39' W 009°05'1 1.2
2014-Oct-20 08:33N 38°40' W 009°06'0 0.4
2014-Oct-20 07:33N 38°40' W 009°07'2 1.7
2014-Oct-20 06:33N 38°39' W 009°05'0 0.0
2014-Oct-20 05:33N 38°39' W 009°05'0 0.0
2014-Oct-20 04:33N 38°39' W 009°05'0 0.0
2014-Oct-20 03:34N 38°39' W 009°05'0 0.0
2014-Oct-20 02:33N 38°39' W 009°05'0 0.0
2014-Oct-20 01:33N 38°39' W 009°05'0 0.0
2014-Oct-20 00:32N 38°39' W 009°05'0 0.0
2014-Oct-19 23:32N 38°39' W 009°05'0 0.0
2014-Oct-19 22:33N 38°39' W 009°05'0 0.0
2014-Oct-19 21:33N 38°39' W 009°05'3 3.0
2014-Oct-19 20:33N 38°41' W 009°08'3 3.1
2014-Oct-19 19:33N 38°39' W 009°05'1 1.3
2014-Oct-19 18:33N 38°40' W 009°06'0 0.3
2014-Oct-19 17:33N 38°39' W 009°06'0 0.2
2014-Oct-19 16:33N 38°39' W 009°06'1 0.6
2014-Oct-19 15:34N 38°40' W 009°06'1 1.1
2014-Oct-19 14:18N 38°39' W 009°05'2 2.1
2014-Oct-19 13:33N 38°40' W 009°06'1 0.9
2014-Oct-19 12:32N 38°39' W 009°06'1 0.7
2014-Oct-19 11:33N 38°39' W 009°05'0 0.0
2014-Oct-19 10:32N 38°39' W 009°05'0 0.0
2014-Oct-19 09:05N 38°39' W 009°05'0 0.0
2014-Oct-19 08:31N 38°39' W 009°05'3 3.2
2014-Oct-19 07:33N 38°42' W 009°06'3 3.1
2014-Oct-19 06:33N 38°39' W 009°05'2 1.9
2014-Oct-19 05:29N 38°40' W 009°07'2 0.1
2014-Oct-17 20:32N 38°39' W 009°05'0 0.0
2014-Oct-17 19:32N 38°39' W 009°05'3 3.4
2014-Oct-17 18:33N 38°42' W 009°08'2 1.6
2014-Oct-17 17:33N 38°40' W 009°07'2 2.1
2014-Oct-17 16:33N 38°39' W 009°05'2 1.6
2014-Oct-17 15:27N 38°40' W 009°07'2 1.9
2014-Oct-17 14:32N 38°39' W 009°05'0 0.0
2014-Oct-17 10:22N 38°39' W 009°05'1 1.6
2014-Oct-17 09:33N 38°40' W 009°06'1 0.5
2014-Oct-17 08:31N 38°40' W 009°07'2 2.4
2014-Oct-17 07:33N 38°42' W 009°08'0 0.3
2014-Oct-17 06:33N 38°42' W 009°08'4 0.4
2014-Oct-16 20:16N 38°39' W 009°05'3 4.1
2014-Oct-16 19:33N 38°41' W 009°08'1 1.3
2014-Oct-16 18:31N 38°40' W 009°07'3 2.7
2014-Oct-16 17:32N 38°42' W 009°08'0 0.3
2014-Oct-16 16:33N 38°42' W 009°08'2 1.6
2014-Oct-16 15:33N 38°41' W 009°08'3 2.5
2014-Oct-16 14:25N 38°39' W 009°05'1 1.6
2014-Oct-16 13:33N 38°40' W 009°06'0 0.1
2014-Oct-16 12:33N 38°40' W 009°06'2 0.7
2014-Oct-16 09:33N 38°41' W 009°08'3 3.2
2014-Oct-16 08:32N 38°39' W 009°05'2 1.7
2014-Oct-16 07:32N 38°40' W 009°07'2 2.5
2014-Oct-16 06:33N 38°42' W 009°08'0 0.4
2014-Oct-16 05:33N 38°42' W 009°08'0 0.0
2014-Oct-16 04:33N 38°42' W 009°08'4 1.3
2014-Oct-16 01:24N 38°39' W 009°05'0 0.6
2014-Oct-16 00:34N 38°39' W 009°05'0 0.0
2014-Oct-15 23:33N 38°39' W 009°05'0 0.1
2014-Oct-15 22:34N 38°39' W 009°05'1 1.3
2014-Oct-15 21:33N 38°40' W 009°07'0 0.0
2014-Oct-15 20:33N 38°40' W 009°07'2 1.6
2014-Oct-15 19:33N 38°39' W 009°05'0 0.0
2014-Oct-15 18:33N 38°39' W 009°05'1 1.4
2014-Oct-15 17:34N 38°40' W 009°06'3 2.8
2014-Oct-15 16:34N 38°42' W 009°08'4 3.9
2014-Oct-15 15:33N 38°39' W 009°05'0 0.0
2014-Oct-15 13:09N 38°39' W 009°05'0 0.0
2014-Oct-15 12:33N 38°39' W 009°05'0 0.0
2014-Oct-15 11:33N 38°39' W 009°05'0 0.0
2014-Oct-15 10:33N 38°39' W 009°05'0 0.0
2014-Oct-15 09:33N 38°39' W 009°05'1 1.2
2014-Oct-15 08:34N 38°40' W 009°06'2 2.4
2014-Oct-15 07:33N 38°42' W 009°08'1 0.5
2014-Oct-15 06:33N 38°42' W 009°08'  

Dump ship's entire track history